Location: Gebenbach
(49.5378°N, 11.8735°E)
Time: 11:00:51
(UTC+00:00)

Cosmos 1553 Rocket - Pass Details

Date: 29 October 2020
Orbit: 940 x 1009 km, 82.9° (Epoch: 25 November)

Event Time Altitude Azimuth Distance (km) Brightness Sun altitude
Rises 17:41:56 0° 192° (SSW) 3,710 7.2 -17.8°
Reaches altitude 10° 17:44:28 10° 194° (SSW) 2,757 6.5 -18.2°
Maximum altitude 17:50:48 76° 280° (W) 1,019 4.2 -19.3°
Drops below altitude 10° 17:57:05 10° 7° (N) 2,729 6.3 -20.3°
Sets 17:59:35 0° 9° (N) 3,670 7.0 -20.7°
